This is the latest recevied weather packets stored in our database for station/object DK6GC-10. If no packets are shown the sender has not sent any weather packets the latest 10 day(s).
| Time | Temp. | Humidity | Pressure | Rain* | Wind** | Luminosity | Snow |
|---|---|---|---|---|---|---|---|
| 1787522427 | 16.11° C | 59% | 1023.2 hPa | - | - | - | - |
| 1787521527 | 16.67° C | 56% | 1023.1 hPa | - | - | - | - |
| 1787520627 | 16.67° C | 54% | 1022.9 hPa | - | - | - | - |
| 1787519727 | 16.67° C | 53% | 1023 hPa | - | - | - | - |
| 1787518826 | 16.67° C | 55% | 1023.1 hPa | - | - | - | - |
| 1787517926 | 16.67° C | 55% | 1023.2 hPa | - | - | - | - |
| 1787517026 | 17.22° C | 55% | 1023.2 hPa | - | - | - | - |
| 1787516126 | 17.22° C | 53% | 1023.2 hPa | - | - | - | - |
| 1787515226 | 16.67° C | 55% | 1023.1 hPa | - | - | - | - |
| 1787514325 | 17.22° C | 57% | 1023 hPa | - | - | - | - |
| 1787513425 | 17.22° C | 58% | 1023.1 hPa | - | - | - | - |
| 1787512525 | 17.78° C | 56% | 1023.2 hPa | - | - | - | - |
| 1787511625 | 17.78° C | 53% | 1023 hPa | - | - | - | - |
| 1787510724 | 18.33° C | 51% | 1022.8 hPa | - | - | - | - |
| 1787509823 | 18.33° C | 53% | 1022.6 hPa | - | - | - | - |
| 1787508922 | 19.44° C | 50% | 1022.7 hPa | - | - | - | - |
| 1787508028 | 20° C | 48% | 1022.6 hPa | - | - | - | - |
| 1787507127 | 20° C | 47% | 1022.7 hPa | - | - | - | - |
| 1787506227 | 20.56° C | 47% | 1022.7 hPa | - | - | - | - |
| 1787505327 | 21.11° C | 46% | 1022.7 hPa | - | - | - | - |
| 1787504427 | 21.11° C | 44% | 1022.8 hPa | - | - | - | - |
| 1787503527 | 21.67° C | 44% | 1022.9 hPa | - | - | - | - |
| 1787502626 | 22.22° C | 45% | 1022.9 hPa | - | - | - | - |
| 1787501726 | 22.22° C | 44% | 1022.8 hPa | - | - | - | - |
| 1787500826 | 22.22° C | 44% | 1022.9 hPa | - | - | - | - |
* Rain since midnight (hover to see other rain measurements)
** Current wind speed in m/s (hover to see current wind gust speed)